Weather History for Douglas, WY

Change the Weather History Date:

Thursday, December 27, 2012

  Actual Average Record
Temperature  
Mean Temperature 13 °F 24 °F  
Max Temperature 19 °F 38 °F 50 °F (2005)
Min Temperature 7 °F 10 °F -9 °F (2009)
Degree Days  
Heating Degree Days 52 41  
Month to date heating degree days 878 1103  
Since 1 July heating degree days 2425 2925  
Cooling Degree Days 0 0  
Month to date cooling degree days 0 0  
Year to date cooling degree days 831 486  
Moisture  
Dew Point 10 °F    
Average Humidity 83    
Maximum Humidity 92    
Minimum Humidity 73    
Precipitation  
Precipitation T in 0.01 in 0.06 in (2012)
Month to date precipitation 0.01 0.35  
Year to date precipitation 5.27 13.34  
Sea Level Pressure  
Sea Level Pressure 29.83 in    
Wind  
Wind Speed 12 mph (NW)    
Max Wind Speed 23 mph    
Max Gust Speed 28 mph    
Visibility 5 miles    
Events Snow    
T = Trace of Precipitation, MM = Missing Value Source: NWS Daily Summary

Daily Weather History Graph

Daily Weather History Graph

Search for Another Location

Airport:

Trip Planner

Search our weather history database for the weather conditions in past years. The results will help you decide how hot, cold, wet, or windy it might be!

Date:

Astronomy

Dec. 27, 2012 Rise Set
Actual Time 7:31 AM MST 4:34 PM MST
Civil Twilight 6:59 AM MST 5:06 PM MST
Nautical Twilight 6:23 AM MST 5:42 PM MST
Astronomical Twilight 5:49 AM MST 6:16 PM MST
Moon 4:20 PM MST (12/27) 6:43 AM MST (12/27)
Length of Visible Light 10h 07m
Length of Day
9h 03m
Full, 100% of the Moon is Illuminated
Dec 27
Full
Dec 28
Full
Jan 4
Last Quarter
Jan 11
New
Jan 18
First Quarter

Hourly Weather History & Observations

Time (MST) Temp. Windchill Dew Point Humidity Pressure Visibility Wind Dir Wind Speed Gust Speed Precip Events Conditions
12:20 AM 10.4 °F -0.4 °F 6.8 °F 85% 29.64 in 4.0 mi North 6.9 mph - 0.00 in Snow Light Snow
12:53 AM 10.9 °F - 8.1 °F 88% 29.81 in 5.0 mi Calm Calm - 0.00 in   Overcast
1:17 AM 10.4 °F - 6.8 °F 85% 29.64 in 2.5 mi Calm Calm - 0.00 in Snow Light Snow
1:27 AM 12.2 °F - 6.8 °F 79% 29.65 in 3.0 mi Calm Calm - 0.00 in Snow Light Snow
1:53 AM 12.0 °F - 8.1 °F 84% 29.83 in 5.0 mi Calm Calm - 0.00 in   Overcast
2:08 AM 12.2 °F - 8.6 °F 85% 29.66 in 6.0 mi Calm Calm - N/A   Overcast
2:37 AM 12.2 °F 1.7 °F 8.6 °F 85% 29.65 in 3.0 mi NW 6.9 mph - 0.00 in Snow Light Snow
2:53 AM 14.0 °F 0.5 °F 9.0 °F 80% 29.82 in 3.0 mi NW 11.5 mph - 0.00 in Snow Light Snow
3:09 AM 14.0 °F -0.8 °F 10.4 °F 86% 29.66 in 4.0 mi NW 13.8 mph - 0.00 in Snow Light Snow
3:40 AM 14.0 °F -0.8 °F 10.4 °F 86% 29.66 in 5.0 mi NW 13.8 mph - 0.00 in Snow Light Snow
3:53 AM 14.0 °F -0.2 °F 9.0 °F 80% 29.83 in 7.0 mi NW 12.7 mph - 0.00 in Snow Light Snow
4:53 AM 14.0 °F -2.0 °F 9.0 °F 80% 29.83 in 7.0 mi WNW 16.1 mph - 0.00 in Snow Light Snow
5:53 AM 15.1 °F -1.6 °F 9.0 °F 77% 29.84 in 9.0 mi NW 18.4 mph - 0.00 in   Overcast
6:53 AM 12.9 °F -2.2 °F 7.0 °F 77% 29.88 in 10.0 mi NW 13.8 mph - 0.00 in   Scattered Clouds
7:53 AM 14.0 °F -0.8 °F 8.1 °F 77% 29.89 in 9.0 mi NW 13.8 mph - 0.00 in Snow Light Snow
8:39 AM 15.8 °F 1.4 °F 8.6 °F 73% 29.74 in 2.0 mi WNW 13.8 mph - 0.00 in Snow Light Snow
8:53 AM 14.0 °F -0.2 °F 9.0 °F 80% 29.92 in 1.2 mi WNW 12.7 mph - 0.00 in Snow Light Snow
9:02 AM 14.0 °F 0.5 °F 8.6 °F 79% 29.74 in 0.8 mi WNW 11.5 mph - 0.00 in Snow Light Snow
9:15 AM 14.0 °F -0.2 °F 8.6 °F 79% 29.75 in 1.0 mi WNW 12.7 mph - 0.00 in Snow Light Snow
9:27 AM 14.0 °F 1.2 °F 8.6 °F 79% 29.75 in 1.5 mi WNW 10.4 mph - 0.00 in Snow Light Snow
9:39 AM 15.8 °F 2.7 °F 10.4 °F 79% 29.75 in 2.0 mi WNW 11.5 mph - 0.00 in Snow Light Snow
9:53 AM 15.1 °F 1.8 °F 10.0 °F 80% 29.95 in 2.0 mi WNW 11.5 mph - 0.00 in Snow Light Snow
10:03 AM 15.8 °F 3.4 °F 10.4 °F 79% 29.76 in 3.0 mi NW 10.4 mph - 0.00 in Snow Light Snow
10:16 AM 15.8 °F 2.1 °F 10.4 °F 79% 29.76 in 2.0 mi WNW 12.7 mph - 0.00 in Snow Light Snow
10:53 AM 16.0 °F 2.3 °F 10.0 °F 77% 29.97 in 1.8 mi WNW 12.7 mph - 0.00 in Snow Light Snow
11:29 AM 17.6 °F 2.7 °F 10.4 °F 73% 29.75 in 3.0 mi WNW 16.1 mph - 0.00 in Snow Light Snow
11:53 AM 18.0 °F 2.2 °F 12.0 °F 78% 29.94 in 3.0 mi WNW 18.4 mph - 0.00 in Snow Light Snow
12:11 PM 19.4 °F 3.2 °F 12.2 °F 74% 29.74 in 4.0 mi WNW 20.7 mph - 0.00 in Snow Light Snow
12:31 PM 17.6 °F 2.2 °F 12.2 °F 79% 29.74 in 2.0 mi NW 17.3 mph - 0.00 in Snow Light Snow
12:51 PM 17.6 °F 1.3 °F 12.2 °F 79% 29.74 in 1.5 mi WNW 19.6 mph - 0.00 in Snow Light Snow
12:53 PM 18.0 °F 1.3 °F 12.0 °F 78% 29.93 in 1.5 mi WNW 20.7 mph - 0.00 in Snow Light Snow
1:21 PM 19.4 °F 3.6 °F 10.4 °F 68% 29.74 in 3.0 mi NW 19.6 mph 26.5 mph 0.00 in Snow Light Snow
1:53 PM 19.0 °F 2.4 °F 12.9 °F 77% 29.93 in 3.0 mi WNW 21.9 mph - 0.00 in Snow Light Snow
2:25 PM 19.4 °F 4.1 °F 12.2 °F 74% 29.76 in 2.0 mi WNW 18.4 mph 26.5 mph 0.00 in Snow Light Snow
2:53 PM 19.0 °F 2.4 °F 12.9 °F 77% 29.94 in 2.0 mi WNW 21.9 mph - 0.00 in Snow Light Snow
3:08 PM 17.6 °F 0.9 °F 12.2 °F 79% 29.78 in 4.0 mi WNW 20.7 mph 27.6 mph 0.00 in Snow Light Snow
3:53 PM 19.0 °F 4.5 °F 12.0 °F 74% 29.97 in 7.0 mi NW 16.1 mph 23.0 mph 0.00 in Snow Light Snow
4:11 PM 19.4 °F 5.5 °F 10.4 °F 68% 29.80 in 10.0 mi NW 15.0 mph - 0.00 in   Overcast
5:53 PM 17.1 °F 3.6 °F 10.0 °F 74% 30.01 in 10.0 mi NW 12.7 mph - N/A   Overcast
6:53 PM 12.9 °F 1.6 °F 8.1 °F 81% 30.05 in 10.0 mi NNW 8.1 mph - N/A   Mostly Cloudy
7:53 PM 14.0 °F 2.9 °F 8.1 °F 77% 30.06 in 10.0 mi NW 8.1 mph - N/A   Overcast
8:53 PM 14.0 °F 2.9 °F 7.0 °F 74% 30.06 in 10.0 mi NW 8.1 mph - N/A   Overcast
9:53 PM 12.9 °F 3.8 °F 7.0 °F 77% 30.07 in 10.0 mi NW 5.8 mph - N/A   Overcast
10:53 PM 12.0 °F - 7.0 °F 80% 30.08 in 10.0 mi Calm Calm - N/A   Overcast
11:53 PM 16.0 °F 6.3 °F 10.9 °F 81% 30.06 in 10.0 mi NW 6.9 mph - N/A   Overcast